MMZ330P LPBJ-LPPT

Flight info

Callsign MMZ330P
Flight time 0h 30m
Altitude 30000
Route XAPAS DCT VATZI
Aircraft A332/H-SDE3GHIJ2J3J5M1RVWXY/LB2D1

Departure

Time 2026-05-06 19:20
Airport Beja Airport / Airbase (LPBJ)

Arrival

Time 2026-05-06 19:51
Airport Lisbon Humberto Delgado Airport (LPPT)
Time Latitude Longitude Altitude Speed Heading
2026-05-06 19:07 38.06442 -7.93881 633 ft 0 kts 231°
2026-05-06 19:15 38.06448 -7.93871 637 ft 4 kts 228°
2026-05-06 19:15 38.06468 -7.93847 637 ft 4 kts 216°
2026-05-06 19:15 38.06490 -7.93831 643 ft 4 kts 188°
2026-05-06 19:16 38.06510 -7.93835 640 ft 1 kts 141°
2026-05-06 19:16 38.06511 -7.93835 640 ft 4 kts 141°
2026-05-06 19:18 38.06509 -7.93833 641 ft 2 kts 141°
2026-05-06 19:18 38.06495 -7.93819 644 ft 4 kts 141°
2026-05-06 19:18 38.06457 -7.93780 640 ft 10 kts 141°
2026-05-06 19:18 38.06399 -7.93721 640 ft 0 kts 141°
2026-05-06 19:19 38.06397 -7.93719 642 ft 1 kts 141°
2026-05-06 19:19 38.06391 -7.93703 642 ft 3 kts 116°
2026-05-06 19:19 38.06382 -7.93655 638 ft 11 kts 100°
2026-05-06 19:19 38.06370 -7.93508 642 ft 14 kts 95°
2026-05-06 19:20 38.06429 -7.93424 640 ft 12 kts
2026-05-06 19:20 38.06622 -7.93409 633 ft 69 kts
2026-05-06 19:20 38.07435 -7.93290 662 ft 161 kts
2026-05-06 19:20 38.08642 -7.93121 1589 ft 178 kts 359°
2026-05-06 19:21 38.09896 -7.93010 2724 ft 184 kts 359°
2026-05-06 19:21 38.11219 -7.92877 3256 ft 206 kts
2026-05-06 19:21 38.12750 -7.92683 3740 ft 234 kts
2026-05-06 19:21 38.14344 -7.91982 4625 ft 253 kts 30°
2026-05-06 19:22 38.15558 -7.90333 5751 ft 262 kts 61°
2026-05-06 19:22 38.15946 -7.88086 7033 ft 266 kts 92°
2026-05-06 19:22 38.15360 -7.85857 8208 ft 273 kts 125°
2026-05-06 19:22 38.13906 -7.84336 9470 ft 276 kts 157°
2026-05-06 19:23 38.12013 -7.83995 10559 ft 284 kts 187°
2026-05-06 19:23 38.10107 -7.84926 11128 ft 310 kts 214°
2026-05-06 19:23 38.08382 -7.86739 11714 ft 330 kts 222°
2026-05-06 19:23 38.06664 -7.88746 12614 ft 339 kts 222°
2026-05-06 19:24 38.04881 -7.90761 13503 ft 348 kts 219°
2026-05-06 19:24 38.02824 -7.92390 14436 ft 352 kts 205°
2026-05-06 19:24 38.00443 -7.93170 15368 ft 358 kts 188°
2026-05-06 19:24 37.97939 -7.93388 16209 ft 364 kts 184°
2026-05-06 19:25 37.95392 -7.93487 17053 ft 369 kts 183°
2026-05-06 19:25 37.92845 -7.93576 17908 ft 373 kts 184°
2026-05-06 19:25 37.90239 -7.93674 18673 ft 377 kts 184°
2026-05-06 19:25 37.87597 -7.93782 19384 ft 381 kts 184°
2026-05-06 19:26 37.84930 -7.93895 20095 ft 385 kts 184°
2026-05-06 19:26 37.82240 -7.94012 20788 ft 389 kts 184°
2026-05-06 19:26 37.79523 -7.94131 21467 ft 393 kts 185°
2026-05-06 19:26 37.76792 -7.94372 22192 ft 393 kts 191°
2026-05-06 19:27 37.74183 -7.95184 23359 ft 380 kts 202°
2026-05-06 19:27 37.71858 -7.96635 24414 ft 366 kts 215°
2026-05-06 19:27 37.69897 -7.98550 25402 ft 357 kts 222°
2026-05-06 19:27 37.68138 -8.00741 26166 ft 355 kts 229°
2026-05-06 19:28 37.66621 -8.03205 26818 ft 356 kts 237°
2026-05-06 19:28 37.65471 -8.05983 27440 ft 359 kts 248°
2026-05-06 19:28 37.64832 -8.09048 28004 ft 365 kts 261°
2026-05-06 19:28 37.64819 -8.12251 28768 ft 367 kts 274°
2026-05-06 19:29 37.65426 -8.15428 29131 ft 381 kts 287°
2026-05-06 19:29 37.66729 -8.18421 29358 ft 400 kts 302°
2026-05-06 19:29 37.68681 -8.21032 29576 ft 418 kts 313°
2026-05-06 19:29 37.70925 -8.23445 29793 ft 429 kts 315°
2026-05-06 19:30 37.73221 -8.25850 29915 ft 421 kts 315°
2026-05-06 19:30 37.75429 -8.28161 29898 ft 403 kts 315°
2026-05-06 19:30 37.77535 -8.30379 29889 ft 387 kts 314°
2026-05-06 19:30 37.79567 -8.32530 29744 ft 375 kts 314°
2026-05-06 19:31 37.81539 -8.34628 29552 ft 365 kts 314°
2026-05-06 19:31 37.83459 -8.36678 29250 ft 357 kts 314°
2026-05-06 19:31 37.87177 -8.40663 27789 ft 346 kts 314°
2026-05-06 19:32 37.89004 -8.42626 27005 ft 342 kts 314°
2026-05-06 19:32 37.90809 -8.44568 26229 ft 339 kts 314°
2026-05-06 19:32 37.92598 -8.46494 25508 ft 335 kts 314°
2026-05-06 19:32 37.94363 -8.48396 24790 ft 332 kts 315°
2026-05-06 19:33 37.95523 -8.49647 24357 ft 329 kts 315°
2026-05-06 19:33 37.97256 -8.51517 23667 ft 325 kts 315°
2026-05-06 19:33 37.98968 -8.53367 22898 ft 322 kts 315°
2026-05-06 19:33 38.01212 -8.55794 21862 ft 318 kts 315°
2026-05-06 19:34 38.02885 -8.57605 21112 ft 315 kts 315°
2026-05-06 19:34 38.04005 -8.58818 20599 ft 312 kts 315°
2026-05-06 19:34 38.05651 -8.60603 19877 ft 310 kts 316°
2026-05-06 19:34 38.07261 -8.62350 19171 ft 307 kts 316°
2026-05-06 19:35 38.08878 -8.64106 18471 ft 304 kts 316°
2026-05-06 19:35 38.10477 -8.65843 17740 ft 301 kts 315°
2026-05-06 19:35 38.12061 -8.67565 16999 ft 298 kts 315°
2026-05-06 19:35 38.13628 -8.69271 16285 ft 294 kts 315°
2026-05-06 19:36 38.15172 -8.70953 15594 ft 291 kts 315°
2026-05-06 19:36 38.16699 -8.72617 14930 ft 287 kts 316°
2026-05-06 19:36 38.18201 -8.74254 14275 ft 283 kts 315°
2026-05-06 19:36 38.19685 -8.75874 13603 ft 279 kts 317°
2026-05-06 19:37 38.21153 -8.77479 12867 ft 278 kts 317°
2026-05-06 19:37 38.22613 -8.79075 12199 ft 275 kts 316°
2026-05-06 19:37 38.24052 -8.80649 11523 ft 272 kts 317°
2026-05-06 19:37 38.25478 -8.82211 10827 ft 269 kts 317°
2026-05-06 19:38 38.26894 -8.83762 10158 ft 267 kts 318°
2026-05-06 19:38 38.28296 -8.85297 9470 ft 265 kts 319°
2026-05-06 19:38 38.29685 -8.86820 8757 ft 263 kts 319°
2026-05-06 19:38 38.31028 -8.88292 8464 ft 255 kts 319°
2026-05-06 19:39 38.32344 -8.89788 8207 ft 252 kts 316°
2026-05-06 19:39 38.33641 -8.91383 7959 ft 270 kts 315°
2026-05-06 19:39 38.34987 -8.93080 7721 ft 272 kts 315°
2026-05-06 19:39 38.36328 -8.94773 7515 ft 270 kts 315°
2026-05-06 19:40 38.37659 -8.96451 7198 ft 267 kts 315°
2026-05-06 19:40 38.38962 -8.98091 6922 ft 261 kts 315°
2026-05-06 19:40 38.40251 -8.99714 6489 ft 257 kts 315°
2026-05-06 19:40 38.41499 -9.01285 6054 ft 247 kts 315°
2026-05-06 19:41 38.42704 -9.02801 5691 ft 239 kts 315°
2026-05-06 19:41 38.43882 -9.04285 5418 ft 237 kts 315°
2026-05-06 19:41 38.45032 -9.05733 5172 ft 231 kts 315°
2026-05-06 19:41 38.46140 -9.07129 5028 ft 217 kts 315°
2026-05-06 19:42 38.47196 -9.08459 4741 ft 210 kts 315°
2026-05-06 19:42 38.48213 -9.09741 4471 ft 199 kts 316°
2026-05-06 19:42 38.49158 -9.10937 4354 ft 184 kts 316°
2026-05-06 19:42 38.50023 -9.12033 4257 ft 166 kts 316°
2026-05-06 19:43 38.50826 -9.13047 4200 ft 162 kts 316°
2026-05-06 19:43 38.51604 -9.14082 4115 ft 163 kts 308°
2026-05-06 19:43 38.51996 -9.15460 4054 ft 169 kts 283°
2026-05-06 19:43 38.52139 -9.16953 4015 ft 170 kts 279°
2026-05-06 19:44 38.52240 -9.18467 4017 ft 172 kts 281°
2026-05-06 19:44 38.52311 -9.19977 4010 ft 169 kts 279°
2026-05-06 19:44 38.52392 -9.21466 4006 ft 166 kts 284°
2026-05-06 19:44 38.52749 -9.22832 4008 ft 160 kts 303°
2026-05-06 19:45 38.53511 -9.23834 4002 ft 160 kts 330°
2026-05-06 19:45 38.54594 -9.24177 4018 ft 163 kts 356°
2026-05-06 19:45 38.55738 -9.24121 4014 ft 167 kts
2026-05-06 19:45 38.56886 -9.23985 4017 ft 167 kts
2026-05-06 19:46 38.58039 -9.23843 4008 ft 165 kts
2026-05-06 19:46 38.59173 -9.23594 4005 ft 167 kts 12°
2026-05-06 19:46 38.60278 -9.23095 3883 ft 168 kts 19°
2026-05-06 19:46 38.61356 -9.22535 3664 ft 165 kts 17°
2026-05-06 19:47 38.62406 -9.21983 3426 ft 162 kts 17°
2026-05-06 19:47 38.63440 -9.21436 3191 ft 160 kts 19°
2026-05-06 19:47 38.64459 -9.20893 2960 ft 158 kts 18°
2026-05-06 19:47 38.65465 -9.20357 2766 ft 155 kts 17°
2026-05-06 19:48 38.66452 -9.19831 2547 ft 152 kts 18°
2026-05-06 19:48 38.67421 -9.19313 2337 ft 150 kts 18°
2026-05-06 19:48 38.68385 -9.18800 2121 ft 150 kts 18°
2026-05-06 19:48 38.69349 -9.18287 1913 ft 149 kts 18°
2026-05-06 19:49 38.70300 -9.17779 1729 ft 148 kts 17°
2026-05-06 19:49 38.71237 -9.17279 1516 ft 145 kts 17°
2026-05-06 19:49 38.72095 -9.16818 1340 ft 125 kts 17°
2026-05-06 19:49 38.72856 -9.16414 1172 ft 115 kts 18°
2026-05-06 19:50 38.73592 -9.16017 1016 ft 115 kts 18°
2026-05-06 19:50 38.74335 -9.15599 882 ft 117 kts 18°
2026-05-06 19:50 38.75074 -9.15214 693 ft 116 kts 17°
2026-05-06 19:50 38.75832 -9.14827 571 ft 118 kts 18°
2026-05-06 19:51 38.76580 -9.14416 395 ft 115 kts 17°
2026-05-06 19:51 38.77269 -9.14054 368 ft 89 kts 22°
2026-05-06 19:51 38.77667 -9.13844 374 ft 42 kts 21°
2026-05-06 19:51 38.77928 -9.13704 375 ft 39 kts 22°
2026-05-06 19:52 38.78152 -9.13583 375 ft 29 kts 25°
2026-05-06 19:52 38.78316 -9.13426 375 ft 30 kts 47°
2026-05-06 19:52 38.78365 -9.13294 369 ft 13 kts 120°
2026-05-06 19:52 38.78301 -9.13276 369 ft 8 kts 194°
2026-05-06 19:53 38.78239 -9.13305 366 ft 12 kts 201°
2026-05-06 19:53 38.78148 -9.13351 367 ft 16 kts 203°
2026-05-06 19:53 38.78067 -9.13396 367 ft 13 kts 203°
2026-05-06 19:53 38.77975 -9.13446 369 ft 16 kts 204°
2026-05-06 19:54 38.77877 -9.13500 365 ft 17 kts 203°
2026-05-06 19:54 38.77787 -9.13548 361 ft 16 kts 202°
2026-05-06 19:54 38.77693 -9.13599 363 ft 12 kts 203°
2026-05-06 19:54 38.77615 -9.13641 367 ft 12 kts 202°
2026-05-06 19:55 38.77532 -9.13684 369 ft 14 kts 202°
2026-05-06 19:55 38.77441 -9.13732 368 ft 16 kts 202°
2026-05-06 19:55 38.77339 -9.13786 367 ft 9 kts 202°
2026-05-06 19:55 38.77266 -9.13825 364 ft 14 kts 203°
2026-05-06 19:56 38.77178 -9.13873 363 ft 8 kts 203°
2026-05-06 19:56 38.77107 -9.13904 363 ft 13 kts 183°
2026-05-06 19:56 38.77003 -9.13872 357 ft 18 kts 166°
2026-05-06 19:56 38.76914 -9.13849 362 ft 11 kts 168°
2026-05-06 19:57 38.76865 -9.13845 352 ft 5 kts 201°
2026-05-06 19:57 38.76848 -9.13898 357 ft 7 kts 258°
2026-05-06 19:57 38.76844 -9.13922 355 ft 2 kts 258°
2026-05-06 19:57 38.76841 -9.13937 359 ft 0 kts 258°
2026-05-06 19:58 38.76840 -9.13944 359 ft 0 kts 257°